Weather History for Soldotna, AK

Change the Weather History Date:

Tuesday, August 26, 2014

  Actual Average Record
Temperature  
Mean Temperature 52 °F -  
Max Temperature 60 °F 62 °F 76 °F (1981)
Min Temperature 44 °F 43 °F 31 °F (1961)
Degree Days  
Heating Degree Days 13    
Growing Degree Days 2 (Base 50)    
Moisture  
Dew Point 49 °F    
Average Humidity 82    
Maximum Humidity 94    
Minimum Humidity 63    
Precipitation  
Precipitation 0.00 in - - ()
Sea Level Pressure  
Sea Level Pressure 29.85 in    
Wind  
Wind Speed 2 mph (SSW)    
Max Wind Speed 9 mph    
Max Gust Speed -    
Visibility 10 miles    
Events      
Averages and records for this station are not official NWS values.
T = Trace of Precipitation, MM = Missing Value Source: NWS Daily Summary

Daily Weather History Graph

Daily Weather History Graph

Search for Another Location

Airport:

Trip Planner

Search our weather history database for the weather conditions in past years. The results will help you decide how hot, cold, wet, or windy it might be!

Date:

Astronomy

Aug. 26, 2014 Rise Set
Actual Time 6:43 AM AKDT 9:26 PM AKDT
Civil Twilight 5:56 AM AKDT 10:13 PM AKDT
Nautical Twilight 4:51 AM AKDT 11:17 PM AKDT
Astronomical Twilight 3:11 AM AKDT 12:52 AM AKDT
Moon 8:24 AM AKDT (8/26) 9:14 PM AKDT (8/26)
Length of Visible Light 16h 17m
Length of Day
14h 42m
New Moon, 1% of the Moon is Illuminated
Aug 26
New Moon
Sep 2
First Quarter
Sep 8
Full
Sep 15
Last Quarter
Sep 23
New

Hourly Weather History & Observations

Time (AKDT) Temp. Windchill Dew Point Humidity Pressure Visibility Wind Dir Wind Speed Gust Speed Precip Events Conditions
12:16 AM 48.2 °F - 46.4 °F 93% 29.75 in 10.0 mi Calm Calm - N/A   Mostly Cloudy
12:36 AM 48.2 °F - 46.4 °F 93% 29.75 in 10.0 mi Calm Calm - N/A   Overcast
12:56 AM 48.2 °F - 46.4 °F 93% 29.76 in 10.0 mi Calm Calm - N/A   Overcast
1:16 AM 50.0 °F - 46.4 °F 87% 29.76 in 10.0 mi Calm Calm - N/A   Overcast
1:36 AM 50.0 °F - 46.4 °F 87% 29.77 in 10.0 mi Calm Calm - N/A   Overcast
1:56 AM 50.0 °F - 48.2 °F 94% 29.77 in 10.0 mi East 3.5 mph - N/A   Overcast
2:16 AM 50.0 °F - 46.4 °F 87% 29.77 in 10.0 mi Calm Calm - N/A   Overcast
2:36 AM 50.0 °F - 46.4 °F 87% 29.78 in 10.0 mi Calm Calm - N/A   Overcast
2:56 AM 50.0 °F - 48.2 °F 94% 29.78 in 10.0 mi Calm Calm - N/A   Overcast
3:16 AM 50.0 °F - 46.4 °F 87% 29.79 in 10.0 mi Calm Calm - N/A   Overcast
3:36 AM 48.2 °F - 46.4 °F 93% 29.79 in 10.0 mi Calm Calm - N/A   Overcast
3:56 AM 48.2 °F - 46.4 °F 93% 29.79 in 10.0 mi East 3.5 mph - N/A   Overcast
4:16 AM 48.2 °F - 46.4 °F 93% 29.79 in 10.0 mi East 3.5 mph - N/A   Overcast
4:36 AM 50.0 °F - 46.4 °F 87% 29.80 in 10.0 mi Calm Calm - N/A   Overcast
4:56 AM 48.2 °F - 46.4 °F 93% 29.81 in 10.0 mi Calm Calm - N/A   Overcast
5:16 AM 48.2 °F - 46.4 °F 93% 29.81 in 10.0 mi Calm Calm - N/A   Mostly Cloudy
5:36 AM 46.4 °F 45.2 °F 44.6 °F 93% 29.81 in 10.0 mi East 3.5 mph - N/A   Overcast
5:56 AM 46.4 °F 45.2 °F 44.6 °F 93% 29.81 in 10.0 mi East 3.5 mph - N/A   Overcast
6:16 AM 46.4 °F - 44.6 °F 93% 29.81 in 10.0 mi Calm Calm - N/A   Scattered Clouds
6:36 AM 46.4 °F 45.2 °F 44.6 °F 93% 29.81 in 10.0 mi East 3.5 mph - N/A   Partly Cloudy
6:56 AM 46.4 °F - 44.6 °F 93% 29.82 in 10.0 mi Calm Calm - N/A   Partly Cloudy
7:16 AM 44.6 °F 43.1 °F 42.8 °F 93% 29.82 in 10.0 mi East 3.5 mph - N/A   Clear
7:36 AM 46.4 °F 44.3 °F 44.6 °F 93% 29.83 in 10.0 mi East 4.6 mph - N/A   Clear
7:56 AM 46.4 °F 45.2 °F 44.6 °F 93% 29.83 in 10.0 mi ENE 3.5 mph - N/A   Clear
8:16 AM 48.2 °F - 44.6 °F 87% 29.84 in 10.0 mi ENE 3.5 mph - N/A   Clear
8:36 AM 48.2 °F - 46.4 °F 93% 29.84 in 10.0 mi East 4.6 mph - N/A   Clear
8:56 AM 50.0 °F - 46.4 °F 87% 29.84 in 10.0 mi Calm Calm - N/A   Clear
9:16 AM 51.8 °F - 46.4 °F 82% 29.84 in 10.0 mi ENE 3.5 mph - N/A   Clear
9:36 AM 55.4 °F - 48.2 °F 77% 29.85 in 10.0 mi SSE 6.9 mph - N/A   Clear
9:56 AM 55.4 °F - 48.2 °F 77% 29.85 in 10.0 mi SSE 6.9 mph - N/A   Scattered Clouds
10:16 AM 55.4 °F - 46.4 °F 72% 29.85 in 10.0 mi WSW 3.5 mph - N/A   Scattered Clouds
10:36 AM 55.4 °F - 48.2 °F 77% 29.86 in 10.0 mi Calm Calm - N/A   Partly Cloudy
10:56 AM 55.4 °F - 48.2 °F 77% 29.86 in 10.0 mi Calm Calm - N/A   Partly Cloudy
11:16 AM 57.2 °F - 48.2 °F 72% 29.86 in 10.0 mi Calm Calm - N/A   Mostly Cloudy
11:36 AM 57.2 °F - 46.4 °F 67% 29.86 in 10.0 mi Calm Calm - N/A   Mostly Cloudy
11:56 AM 57.2 °F - 48.2 °F 72% 29.87 in 10.0 mi South 3.5 mph - N/A   Overcast
12:16 PM 59.0 °F - 48.2 °F 67% 29.87 in 10.0 mi NW 3.5 mph - N/A   Overcast
12:36 PM 60.8 °F - 48.2 °F 63% 29.87 in 10.0 mi WNW 3.5 mph - N/A   Overcast
12:56 PM 60.8 °F - 48.2 °F 63% 29.87 in 10.0 mi Calm Calm - N/A   Overcast
1:16 PM 60.8 °F - 48.2 °F 63% 29.87 in 10.0 mi WNW 4.6 mph - N/A   Overcast
1:36 PM 60.8 °F - 48.2 °F 63% 29.87 in 10.0 mi NW 3.5 mph - N/A   Overcast
1:56 PM 60.8 °F - 48.2 °F 63% 29.87 in 10.0 mi Calm Calm - N/A   Mostly Cloudy
2:16 PM 60.8 °F - 50.0 °F 68% 29.87 in 10.0 mi West 3.5 mph - N/A   Mostly Cloudy
2:36 PM 60.8 °F - 50.0 °F 68% 29.87 in 10.0 mi West 9.2 mph - N/A   Overcast
2:56 PM 60.8 °F - 51.8 °F 72% 29.88 in 10.0 mi West 9.2 mph - N/A   Overcast
3:16 PM 59.0 °F - 51.8 °F 77% 29.88 in 10.0 mi West 6.9 mph - N/A   Overcast
3:36 PM 60.8 °F - 51.8 °F 72% 29.88 in 10.0 mi West 6.9 mph - N/A   Overcast
3:56 PM 60.8 °F - 51.8 °F 72% 29.88 in 10.0 mi West 5.8 mph - N/A   Mostly Cloudy
4:16 PM 60.8 °F - 51.8 °F 72% 29.88 in 10.0 mi West 8.1 mph - N/A   Overcast
4:36 PM 60.8 °F - 51.8 °F 72% 29.88 in 10.0 mi West 9.2 mph - N/A   Mostly Cloudy
4:56 PM 60.8 °F - 53.6 °F 77% 29.88 in 10.0 mi WNW 6.9 mph - N/A   Overcast
5:16 PM 60.8 °F - 51.8 °F 72% 29.88 in 10.0 mi SSW 6.9 mph - N/A   Overcast
5:36 PM 59.0 °F - 51.8 °F 77% 29.88 in 10.0 mi SW 5.8 mph - N/A   Overcast
5:56 PM 59.0 °F - 51.8 °F 77% 29.89 in 10.0 mi South 4.6 mph - N/A   Overcast
6:16 PM 59.0 °F - 51.8 °F 77% 29.89 in 10.0 mi SSW 6.9 mph - N/A   Overcast
6:36 PM 59.0 °F - 51.8 °F 77% 29.89 in 10.0 mi SSW 6.9 mph - N/A   Overcast
6:56 PM 59.0 °F - 53.6 °F 82% 29.89 in 10.0 mi West 6.9 mph - N/A   Mostly Cloudy
7:16 PM 59.0 °F - 53.6 °F 82% 29.89 in 10.0 mi SW 5.8 mph - N/A   Mostly Cloudy
7:36 PM 57.2 °F - 51.8 °F 82% 29.89 in 10.0 mi SW 5.8 mph - N/A   Mostly Cloudy
7:56 PM 57.2 °F - 51.8 °F 82% 29.89 in 10.0 mi SSW 4.6 mph - N/A   Mostly Cloudy
8:16 PM 57.2 °F - 51.8 °F 82% 29.89 in 10.0 mi SSW 4.6 mph - N/A   Overcast
8:36 PM 57.2 °F - 53.6 °F 88% 29.89 in 10.0 mi WSW 4.6 mph - N/A   Overcast
8:56 PM 57.2 °F - 51.8 °F 82% 29.89 in 10.0 mi Calm Calm - N/A   Overcast
9:16 PM 57.2 °F - 51.8 °F 82% 29.89 in 10.0 mi Calm Calm - N/A   Mostly Cloudy
9:36 PM 57.2 °F - 51.8 °F 82% 29.89 in 10.0 mi Calm Calm - N/A   Overcast
9:56 PM 55.4 °F - 51.8 °F 88% 29.89 in 10.0 mi Calm Calm - N/A   Overcast
10:16 PM 55.4 °F - 51.8 °F 88% 29.89 in 10.0 mi Calm Calm - N/A   Overcast
10:36 PM 55.4 °F - 51.8 °F 88% 29.89 in 10.0 mi Calm Calm - N/A   Overcast
10:56 PM 55.4 °F - 51.8 °F 88% 29.89 in 10.0 mi ESE 3.5 mph - N/A   Overcast
11:16 PM 55.4 °F - 51.8 °F 88% 29.89 in 10.0 mi Calm Calm - N/A   Mostly Cloudy
11:36 PM 53.6 °F - 50.0 °F 88% 29.89 in 10.0 mi Calm Calm - N/A   Overcast
11:56 PM 53.6 °F - 50.0 °F 88% 29.89 in 10.0 mi Calm Calm - N/A   Overcast